sat.trackr.live / text

‹ back to catalog

STARLINK-31101

NORAD 58737 · 2024-005K

PAYLOAD ACTIVE UNKNOWN

§ Identity

Operator
Country
US
Launch date
2024-01-07
Launch site
AFETR
Launch vehicle
Mass (kg)
RCS (m²)

Purposes: comms

External: N2YO · Heavens-Above · Gunter

§ Orbital elements

Epoch: 2026-09-20T12:52:19.366464Z

Period
94.27 min
Inclination
43.0036°
Eccentricity
0.0001197
Mean motion
15.27578147 rev/d
Perigee alt
482.2 km
Apogee alt
483.9 km
Semi-major
6,861.2 km
B*
-2.3217e-5
RAAN
199.3022°
Arg perigee
262.6654°
Mean anomaly
97.4062°
Rev number
15,023

§ Raw data

STARLINK-311011 58737U 24005K   26263.53633526 -.00000901  00000+0 -23217-4 0  99932 58737  43.0036 199.3022 0001197 262.6654  97.4062 15.27578147150239

JSON: /api/v1/satellites/58737 · /tle

For live sub-satellite position, see the globe view (requires WebGL).

§ Visibility from observer

Set your observer location to see the next 7 days of passes ≥ 10°. The values pass through the URL so the page stays shareable.

No JS? Fill the form by hand. The geolocation button needs JavaScript.